RH
70 72 74 74 66 84 93 88 89 78 70 56 54 45 45 43 60 73 71 62 52 50 59 60 58 55 52 51 47 42 40 40 43 45 44 43 32 27 23 18 16 16 16 18
73 72 78 80 83 86 85 87 87 77 68 61 48 51 50 49 67 70 60 58 64 59 56 57 66 71 72 69 69 67 61 60 56 53 45 32 30 26 19 15 16 22 29 33
56 62 64 59 44 56 62 69 84 92 63 66 51 57 51 54 60 62 64 65 60 56 68 80 81 83 82 82 80 79 76 71 64 53 39 36 31 26 28 30 28 34 37 34
75 81 81 42 56 51 43 41 62 73 70 72 60 51 57 66 66 65 65 63 58 69 83 85 86 88 91 90 89 92 89 78 68 59 46 44 39 36 37 37 41 42 40 51
77 82 56 42 56 63 60 54 61 52 52 67 69 56 57 70 74 66 62 62 67 82 84 87 92 95 93 100 97 91 84 77 71 68 51 50 51 49 48 50 45 41 53 60
90 82 81 80 81 81 80 70 62 54 52 61 68 58 53 66 68 63 62 64 85 87 91 95 95 96 100 98 90 90 83 80 73 72 59 56 58 55 52 42 47 58 64 61
93 86 64 62 71 76 82 82 88 78 62 62 62 66 65 64 66 66 64 88 93 94 94 92 97 100 98 91 86 87 87 78 70 67 62 58 55 50 49 57 70 66 63 41
88 83 78 62 77 79 91 94 94 66 80 70 69 69 71 72 76 90 93 95 93 89 91 96 99 93 89 93 90 92 85 72 64 65 61 62 59 61 69 71 68 53 18 14
70 70 73 80 80 83 95 99 99 99 80 78 78 82 85 97 97 94 97 94 94 92 96 98 90 87 90 99 92 90 89 82 73 66 67 67 71 73 72 64 35 16 14 14
83 77 79 78 77 80 94 98 99 92 96 99 98 95 97 99 98 95 93 90 93 94 99 91 86 84 88 96 98 97 94 90 77 77 76 75 73 65 41 25 17 14 15 16
80 80 82 79 84 83 95 98 96 88 86 87 90 96 98 98 97 95 97 97 98 94 99 92 84 81 81 84 90 94 95 92 82 83 80 79 57 30 26 20 16 15 15 16
78 82 90 85 86 87 93 93 92 92 90 92 94 96 98 98 97 99 99 97 95 99 92 95 84 79 77 79 81 86 96 85 85 86 81 57 30 28 24 20 16 15 16 17
79 75 74 84 93 93 92 90 84 75 72 70 73 76 85 93 93 91 94 98 96 96 98 97 85 82 76 74 74 75 79 84 86 84 79 31 30 28 25 21 18 16 17 18
85 80 76 80 81 90 93 88 79 70 66 63 64 63 63 74 73 71 72 88 96 98 97 98 97 87 82 76 73 74 76 79 84 84 59 30 31 28 26 23 21 19 19 20
72 79 83 83 79 77 76 73 72 72 69 64 62 63 62 62 80 83 82 86 99 98 100 98 96 98 92 83 79 68 73 77 77 63 36 30 32 29 27 26 23 22 22 22
78 79 76 75 75 75 73 73 74 75 77 74 71 74 72 66 62 70 80 80 90 99 98 100 100 96 97 96 88 84 67 58 56 46 33 31 32 31 29 28 27 26 26 25
76 82 79 86 91 91 88 87 86 91 96 92 78 67 75 79 73 70 70 74 81 89 99 99 99 99 99 98 99 93 91 86 61 42 33 30 31 33 33 31 30 29 28 28
91 87 91 100 100 100 100 100 100 100 100 98 86 75 76 74 74 77 79 79 82 97 100 100 100 99 100 100 100 100 98 92 76 67 53 35 31 31 32 34 34 32 31 30
96 92 94 93 98 99 100 100 100 96 88 84 80 77 79 80 72 75 83 85 85 85 98 100 100 98 95 97 100 99 99 99 99 98 94 77 64 54 48 46 47 36 34 33
100 100 96 94 96 94 90 87 89 88 86 83 80 76 78 85 86 91 96 92 92 93 91 99 100 100 100 92 92 100 100 99 97 97 98 99 98 98 98 97 97 96 94 78
100 98 96 93 91 90 92 91 92 93 93 93 93 92 90 90 98 100 100 100 99 100 100 100 94 95 98 100 99 96 100 99 100 98 98 97 97 99 98 98 98 98 97 96
97 97 97 97 98 98 93 87 88 91 88 84 88 91 95 95 97 96 95 96 96 100 100 94 84 89 92 92 97 97 88 95 94 95 95 95 98 99 98 98 97 97 96 96
96 97 97 96 95 94 94 91 75 67 61 56 50 48 50 54 88 96 97 95 96 98 100 100 88 86 89 93 93 98 98 97 98 97 98 99 98 98 99 98 98 96 96 96
85 82 82 77 76 76 77 75 72 70 65 59 52 42 30 25 32 34 74 96 96 100 100 100 97 93 95 96 94 96 98 98 98 98 98 98 99 98 98 98 97 96 96 96
89 80 91 90 83 77 75 76 75 72 67 59 49 39 23 9 8 10 14 17 64 96 98 97 97 97 97 97 97 98 97 97 97 97 97 97 97 98 98 98 97 96 96 96
64 63 76 83 88 82 72 68 70 71 59 43 34 21 12 6 5 5 5 5 6 15 86 97 97 96 97 97 97 97 97 97 97 96 97 97 97 97 97 97 96 96 96 96
44 49 52 52 49 55 50 47 58 50 30 23 11 8 7 7 6 6 6 5 5 4 6 13 61 94 96 96 96 97 97 97 97 97 97 97 96 96 96 96 96 96 95 96
Wind_Speed
7 7 11 17 24 27 33 37 20 26 23 17 18 10 9 11 18 20 18 17 17 16 16 16 16 18 20 21 24 26 26 26 26 26 25 25 23 22 22 21 20 19 19 19
7 7 9 12 15 27 28 32 38 22 20 19 15 11 11 12 17 19 17 15 15 15 15 16 17 19 20 23 24 25 25 24 23 23 22 21 21 20 19 18 18 17 17 17
4 9 7 12 23 25 28 31 31 37 27 18 16 17 16 11 13 14 15 14 13 14 15 17 18 20 22 24 25 23 23 22 22 21 20 19 19 18 18 17 17 17 16 14
4 6 2 6 6 10 22 24 26 32 29 26 21 19 18 12 8 9 13 16 16 16 17 18 20 21 23 26 23 23 23 22 21 21 21 20 18 17 17 17 17 15 13 12
4 7 11 10 10 10 10 13 17 25 22 25 25 21 19 17 15 13 14 15 16 17 19 21 21 24 27 23 25 25 25 23 23 22 22 20 19 18 17 16 15 14 13 11
6 3 4 2 3 4 7 10 9 11 17 23 20 19 18 18 18 17 17 16 17 18 19 20 24 24 22 25 24 25 24 22 23 23 21 19 18 17 15 15 14 13 12 11
11 4 7 7 5 3 2 4 7 5 14 18 21 19 16 18 19 20 18 17 18 19 19 22 20 22 25 26 25 23 22 21 20 18 18 17 16 16 16 15 15 14 13 13
10 6 7 4 5 5 2 4 7 1 8 13 16 15 14 15 14 14 15 16 16 18 19 21 22 24 27 24 21 20 20 19 17 17 17 15 16 16 16 16 15 14 14 13
6 3 2 1 2 4 6 3 4 1 4 7 8 9 12 13 13 13 12 15 17 18 19 21 21 21 16 16 15 15 15 14 14 15 16 16 17 18 17 16 16 15 14 13
7 5 8 10 10 5 6 8 5 5 2 10 15 15 16 15 10 9 11 13 13 15 17 17 16 14 11 11 14 15 15 15 15 15 17 17 17 17 17 17 16 15 15 14
11 10 14 13 6 5 6 6 6 5 6 8 8 7 9 13 11 11 12 13 12 13 12 12 12 12 11 11 12 14 15 17 18 19 20 19 19 18 17 16 16 15 15 14
16 11 8 6 10 8 8 9 8 8 8 10 10 10 12 13 14 13 14 12 12 14 15 12 11 10 10 10 12 14 15 19 19 20 20 20 19 18 17 17 17 17 16 14
5 12 15 12 7 8 7 8 9 12 13 12 12 14 17 18 18 17 16 17 15 13 12 12 10 10 10 9 9 9 14 20 21 22 21 20 19 18 18 19 19 17 17 16
10 9 9 11 15 16 16 17 17 16 15 17 19 19 18 17 18 18 19 18 17 14 12 10 11 10 11 10 9 10 12 17 21 22 22 20 19 20 20 20 19 19 19 18
11 8 10 11 12 14 15 17 18 19 20 21 22 22 21 21 19 18 18 18 19 17 15 15 12 12 12 13 12 12 14 16 18 20 21 22 22 21 21 21 21 21 21 21
13 9 9 12 13 15 17 19 19 21 23 23 22 21 20 20 23 23 21 20 19 17 17 16 17 18 14 15 16 16 17 19 21 22 23 23 23 22 22 22 23 24 22 23
17 16 16 17 20 21 22 23 25 26 26 27 25 23 24 22 20 22 25 25 23 22 20 18 19 21 20 18 16 20 20 22 22 24 24 24 25 25 25 26 26 25 25 26
21 23 21 19 21 22 22 24 26 28 31 31 28 22 22 25 24 22 23 24 24 25 25 25 24 23 23 23 24 19 21 25 24 23 25 27 27 28 29 29 28 28 28 29
21 19 19 18 18 19 19 20 21 22 23 24 23 21 20 21 23 23 25 25 26 28 28 30 30 30 28 27 26 28 27 24 23 23 26 30 34 34 33 33 31 31 32 32
12 12 10 9 9 11 11 11 11 13 15 18 20 20 20 19 19 21 23 23 24 27 29 30 35 32 32 30 28 29 28 33 32 36 31 26 27 29 32 34 35 38 39 35
6 5 2 1 3 4 6 7 9 12 13 13 13 14 15 17 17 20 21 21 24 25 28 30 35 37 35 32 33 30 30 33 30 27 30 34 35 37 36 34 33 33 36 39
4 3 2 3 6 7 7 7 9 10 10 12 13 14 12 13 16 18 20 21 23 26 27 27 28 35 40 38 35 34 34 32 31 34 33 35 34 34 36 36 35 34 33 34
1 3 6 8 9 9 9 10 12 13 14 15 16 16 17 16 15 15 18 19 20 22 23 23 23 25 32 37 37 35 34 36 34 35 34 35 35 36 37 39 39 37 34 31
8 9 9 10 11 13 14 16 17 18 19 19 19 20 19 20 22 21 19 18 20 21 20 21 21 22 26 31 35 37 39 39 39 37 39 38 38 37 38 39 40 39 36 31
14 17 17 17 17 18 19 19 20 21 22 23 23 22 22 21 21 22 22 22 21 20 20 20 19 20 22 25 30 34 37 38 38 37 37 38 39 40 41 41 39 37 33 30
20 19 19 20 22 24 24 23 24 25 25 25 24 22 22 21 20 20 20 20 21 21 21 20 19 18 18 19 20 23 28 33 37 39 38 39 40 39 37 35 32 30 29 28
23 24 24 24 24 24 25 25 24 24 23 21 21 21 21 21 21 21 21 20 20 20 20 21 22 21 19 17 17 18 18 18 19 21 22 22 22 22 21 22 23 24 26 25
Wind_Direction
214 228 224 236 231 218 220 228 230 250 258 274 260 266 283 251 226 226 231 235 224 224 228 234 243 253 262 269 271 271 272 271 269 266 261 258 257 259 261 261 261 260 259 259
204 202 209 234 233 230 239 235 234 233 244 248 254 253 250 236 231 234 229 216 211 221 236 249 258 265 271 275 278 278 273 270 268 263 257 254 255 258 258 257 256 255 254 258
206 212 234 257 234 230 235 238 236 235 246 246 240 248 248 222 221 220 210 209 231 247 250 254 263 268 273 279 284 277 269 265 267 257 252 252 255 254 251 250 248 249 250 251
193 182 254 246 230 241 245 250 243 244 247 247 245 247 233 220 210 224 233 242 251 251 252 259 266 269 271 278 279 274 269 263 263 253 248 249 251 249 247 246 245 243 240 247
217 217 280 267 250 251 256 255 248 244 240 240 242 242 220 221 225 235 236 251 253 254 260 267 267 272 279 280 281 274 266 260 257 252 247 248 249 248 246 242 232 231 235 226
211 227 237 252 242 261 265 285 270 250 227 228 221 223 226 224 233 241 260 256 256 263 264 266 277 278 276 283 279 273 266 256 254 246 243 247 245 238 228 221 223 221 204 193
231 253 279 257 249 275 235 318 328 261 222 226 229 232 230 233 242 256 256 258 260 266 266 281 281 282 284 281 275 266 258 252 247 241 239 236 226 216 212 211 198 187 187 193
225 239 267 264 234 217 321 325 327 329 204 215 222 227 229 236 241 243 251 256 266 267 273 278 281 285 283 274 262 257 248 241 238 230 221 212 208 206 198 187 183 186 191 201
217 256 260 305 297 253 245 263 300 192 162 178 200 218 224 227 236 245 256 268 274 281 274 282 285 290 277 262 252 243 240 237 227 212 206 201 194 187 183 185 188 195 203 215
261 274 268 269 267 270 230 238 271 305 258 211 211 221 229 230 215 249 257 267 262 280 270 281 284 289 289 265 246 243 243 227 206 202 193 188 188 192 192 194 199 206 216 225
272 275 277 271 273 238 225 252 256 265 283 283 280 268 255 233 231 251 273 278 271 268 279 290 287 286 285 277 260 249 241 215 202 195 191 191 194 198 202 206 212 220 228 235
274 276 286 289 244 272 245 251 265 271 278 275 267 266 275 280 273 268 267 282 295 267 265 289 283 284 284 277 267 250 233 207 198 197 196 199 203 207 212 217 223 230 236 245
278 254 257 259 256 251 256 259 270 282 280 278 275 273 270 269 272 273 273 266 273 289 270 268 272 272 270 265 257 247 220 204 200 199 204 207 211 216 222 226 231 237 243 248
281 271 259 258 254 255 264 271 277 281 275 281 283 279 277 276 268 268 262 262 259 267 276 277 262 258 261 256 247 232 215 201 201 205 211 215 221 226 230 234 238 242 247 252
279 271 265 266 262 264 271 276 279 280 283 286 282 275 267 263 263 267 265 261 259 253 258 269 272 264 255 248 241 235 227 222 220 222 224 226 230 232 235 239 243 247 251 255
260 257 271 272 269 270 273 278 273 281 286 285 279 272 268 263 257 257 260 264 262 261 255 260 262 263 255 252 242 238 234 228 227 229 232 235 239 241 243 245 247 250 254 257
277 267 276 272 269 269 269 269 269 275 279 285 285 271 264 263 261 255 255 257 256 255 256 259 254 261 266 246 254 244 239 240 238 236 239 242 245 247 249 250 252 255 257 259
265 269 277 269 274 275 272 271 271 275 280 279 279 280 272 261 256 256 255 257 254 250 253 259 257 259 258 256 247 255 251 244 245 246 246 246 249 250 252 254 257 259 260 263
262 270 274 279 277 277 276 276 278 280 284 285 281 277 274 269 257 256 257 258 257 256 252 251 249 253 255 255 255 251 244 255 255 255 251 249 249 250 253 254 256 260 261 263
248 263 273 283 282 282 288 296 299 299 296 291 284 278 271 267 265 260 264 271 269 264 255 252 246 244 252 252 257 256 249 248 250 248 254 259 260 261 264 264 265 259 254 256
256 252 229 266 328 350 354 342 337 335 332 329 323 306 285 274 269 266 272 272 274 278 276 268 251 245 239 245 252 253 258 254 253 262 259 261 263 263 263 268 270 270 268 262
196 209 233 283 297 296 305 320 324 326 332 337 342 341 328 298 280 278 275 272 276 281 278 274 263 249 242 241 243 251 256 260 264 263 266 263 263 263 266 266 268 269 269 270
119 305 294 295 302 310 314 318 314 315 318 320 316 310 308 307 304 293 284 283 280 280 283 282 272 259 243 240 244 253 254 260 262 262 268 260 260 262 264 265 265 264 263 265
326 315 308 306 305 305 304 303 304 308 310 311 309 306 302 298 295 289 291 291 289 287 283 280 275 265 252 247 248 251 255 260 261 263 265 259 259 265 267 268 265 261 259 257
314 298 294 297 300 303 303 302 302 304 305 305 304 301 298 293 290 288 287 284 284 285 284 280 275 271 268 264 261 259 259 260 260 261 261 260 262 266 265 267 265 261 257 251
296 294 292 292 293 297 299 298 298 300 302 302 299 298 296 295 294 294 291 286 283 278 277 273 274 272 271 272 273 270 264 261 259 261 262 263 265 266 265 263 261 256 249 246
287 287 288 291 293 293 295 295 297 300 299 299 298 298 297 297 296 295 294 292 289 286 281 277 276 270 266 270 273 274 274 270 266 263 262 261 261 261 259 256 252 248 245 246